Chillicothe, MO

5:32 AM CST on November 22, 2019 (GMT -0600)
Chillicothe

Weather History for KCDJ - September, 2019

Change the Weather History Date:

Tuesday, September 3, 2019

  Actual Average (WUND) Record (WUND)
Temperature  
Mean Temperature 80 °F -  
Max Temperature 90 °F - - (-1)
Min Temperature 72 °F - - (-1)
Cooling Degree Days 16    
Growing Degree Days 30 (Base 50)    
Moisture  
Dew Point 72 °F    
Average Humidity 79    
Maximum Humidity 94    
Minimum Humidity 61    
Precipitation  
Precipitation 0.00 in - - ()
Sea Level Pressure  
Sea Level Pressure 29.92 in    
Wind  
Wind Speed 6 mph (SSW)    
Max Wind Speed 9 mph    
Max Gust Speed 18 mph    
Averages and records for this station are not official NWS values.
T = Trace of Precipitation, MM = Missing Value Source: NWS Daily Summary

Daily Weather History Graph

Daily Weather History Graph

Search for Another Location

Airport or City:

Astronomy

Sep. 03, 2019 Rise Set
Actual Time 6:43 AM CDT 7:42 PM CDT
Civil Twilight 6:16 AM CDT 8:10 PM CDT
Nautical Twilight 5:43 AM CDT 8:43 PM CDT
Astronomical Twilight 5:09 AM CDT 9:17 PM CDT
Moon 11:37 AM CDT (9/3) 10:40 PM CDT (9/3)
Length of Visible Light 13h 53m
Length of Day
12h 58m
Waxing Crescent, 25% of the Moon is Illuminated
Sep 3
Waxing Crescent
Sep 5
First Quarter
Sep 13
Full
Sep 21
Last Quarter
Sep 28
New

Hourly Weather History & Observations

Time (CDT) Temp. Heat Index Dew Point Humidity Pressure Visibility Wind Dir Wind Speed Gust Speed Precip Events Conditions
12:52 AM 73.9 °F - 70.0 °F 87% 29.93 in - South 5.8 mph - N/A   Unknown
1:52 AM 75.0 °F - 70.0 °F 84% 29.91 in - South 6.9 mph - N/A   Unknown
2:52 AM 75.0 °F - 70.0 °F 84% 29.90 in - SSW 8.1 mph - N/A   Unknown
3:52 AM 73.9 °F - 70.0 °F 87% 29.89 in - South 6.9 mph - N/A   Unknown
4:52 AM 73.0 °F - 70.0 °F 90% 29.89 in - South 5.8 mph - N/A   Unknown
5:52 AM 72.0 °F - 70.0 °F 93% 29.92 in - South 3.5 mph - N/A   Unknown
6:52 AM 73.0 °F - 70.0 °F 90% 29.90 in - South 8.1 mph - N/A   Unknown
7:52 AM 73.9 °F - 71.1 °F 91% 29.90 in - SSW 6.9 mph - N/A   Unknown
8:52 AM 75.9 °F - 71.1 °F 85% 29.90 in - SSW 8.1 mph - N/A   Unknown
9:52 AM 79.0 °F - 72.0 °F 79% 29.90 in - Variable 6.9 mph - N/A   Unknown
10:52 AM 81.0 °F 85.8 °F 73.0 °F 77% 29.91 in - SSW 5.8 mph - N/A   Unknown
11:52 AM 84.0 °F 89.6 °F 72.0 °F 67% 29.90 in - SW 9.2 mph 18.4 mph N/A   Unknown
12:52 PM 87.1 °F 93.6 °F 72.0 °F 61% 29.90 in - WNW 6.9 mph - N/A   Unknown
1:52 PM 87.1 °F 94.5 °F 73.0 °F 63% 29.91 in - Variable 3.5 mph - N/A   Unknown
2:52 PM 89.1 °F 99.1 °F 75.0 °F 63% 29.91 in - Variable 4.6 mph - N/A   Unknown
3:52 PM 88.0 °F 97.5 °F 75.0 °F 65% 29.90 in - Variable 4.6 mph - N/A   Unknown
4:52 PM 88.0 °F 97.5 °F 75.0 °F 65% 29.91 in - Calm Calm - N/A   Unknown
5:52 PM 84.9 °F 93.3 °F 75.0 °F 72% 29.86 in - Variable 3.5 mph - N/A   Unknown
6:52 PM 84.0 °F 93.7 °F 77.0 °F 79% 29.91 in - Calm Calm - N/A   Unknown
7:52 PM 80.1 °F 85.8 °F 77.0 °F 90% 29.93 in - Calm Calm - N/A   Unknown
8:52 PM 77.0 °F - 75.0 °F 94% 29.94 in - Calm Calm - N/A   Unknown
9:52 PM 79.0 °F - 73.9 °F 84% 29.97 in - North 8.1 mph - N/A   Unknown
10:52 PM 75.9 °F - 64.9 °F 69% 29.99 in - North 3.5 mph - N/A   Unknown
11:52 PM 73.9 °F - 64.9 °F 73% 30.00 in - Calm Calm - N/A   Unknown